Weather in Kyzyl-Pokun

Russia / Karachay-Cherkess Republic     43°55′52″N   42°19′20″E
temp.,
°C
wind,
m/s
gust,
m/s
humid.,
%
clouds,
%
prec.,
mm/h
press.,
hPa
HPBL,
m
15 april, thu
thu1500:00+4sw228861 0.0 101812
03:00+3s227064 0.0 101812
06:00+4s22592 0.0 101915
09:00+10ne214517 0.0 1017667
12:00+13nne334599 0.0 10161550
15:00+13nne4248100 0.0 10161385
18:00+10ene3564100 0.3 1017273
21:00+7ese117393 0.3 101910
16 april, fri
fri1600:00+6ssw11795 0.0 101910
03:00+5sse22805 0.0 101910
06:00+6sse326591 0.0 101921
09:00+12ene234664 0.0 1017661
12:00+15ene55425 0.0 10151770
15:00+15e354590 0.0 10141903
18:00+9wnw2385100 1.8 1018341
21:00+7se229484 1.9 102029
17 april, sat
sat1700:00+8sse117899 0.0 101811
03:00+6wnw1195100 0.0 101926
06:00+6wnw2398100 0.9 1021257
09:00+5nne2298100 2.1 1023225
12:00+5nne2296100 0.8 1023500
15:00+5ne2294100 1.1 1023327
18:00+5e1294100 3.8 1024266
21:00+5e1293100 3.8 1023229
18 april, sun
sun1800:00+4sse229515 0.0 102229
03:00+4se2289100 0.0 102013
06:00+5se2285100 0.0 101816
09:00+11ene226697 0.0 1015373
12:00+14nne3264100 0.1 1013560
15:00+14wsw1472100 1.5 1013656
18:00+11nnw339060 0.7 1015200
21:00+10ssw009549 1.9 101622
19 april, mon
mon1900:00+9ssw2273100 0.1 101514
03:00+9s2267100 0.1 101513
06:00+9s2266100 0.0 101416
09:00+14nw3356100 0.0 1014429
12:00+15n4259100 0.0 10131038
15:00+14ne4476100 0.2 1013767
18:00+12e2390100 0.9 1014256
21:00+11ese2395100 1.0 101299